This demonstration page uses our WeatherBlox Daily Observations layout. Learn more.

39.29038, -76.61219

Hourly Observations for November 16, 2019

Temp ( °F °C ) Dew Point ( °F °C ) Humidity (%) Winds ( mph kmh ) Pressure ( in mb ) Visibility ( mi km ) Precip ( " mm )
12:54 am 00:54 undefined 43 6.1 27 -2.8 53 53 undefined N/A 30.25 1024 N/A 0 0
1:54 am 01:54 undefined 42 5.6 27 -2.8 55 55 undefined N/A 30.26 1025 N/A 0 0
2:54 am 02:54 undefined 41 5 28 -2.2 60 60 undefined N/A 30.27 1025 N/A 0 0
3:54 am 03:54 undefined 40 4.4 27 -2.8 60 60 undefined N/A 30.28 1025 N/A 0 0
4:54 am 04:54 undefined 39 3.9 25 -3.9 57 57 undefined N/A 30.3 1026 N/A 0 0
5:54 am 05:54 undefined 39 3.9 25 -3.9 57 57 undefined N/A 30.33 1027 N/A 0 0
6:54 am 06:54 undefined 38 3.3 24 -4.4 57 57 undefined N/A 30.35 1028 N/A 0 0
7:54 am 07:54 undefined 39 3.9 25 -3.9 57 57 undefined N/A 30.37 1029 N/A 0 0
8:54 am 08:54 undefined 40 4.4 23 -5 51 51 undefined N/A 30.38 1029 N/A 0 0
9:54 am 09:54 undefined 41 5 22 -5.6 47 47 undefined N/A 30.39 1029 N/A 0 0
10:54 am 10:54 undefined 43 6.1 20 -6.7 40 40 undefined N/A 30.4 1030 N/A 0 0
11:54 am 11:54 undefined 44 6.7 17 -8.3 34 34 undefined N/A 30.39 1029 N/A 0 0
12:54 pm 12:54 undefined 46 7.8 13 -10.6 26 26 undefined N/A 30.36 1028 N/A 0 0
1:54 pm 13:54 undefined 45 7.2 9 -12.8 23 23 undefined N/A 30.35 1028 N/A 0 0
2:54 pm 14:54 undefined 44 6.7 8 -13.3 23 23 undefined N/A 30.37 1028 N/A 0 0
3:54 pm 15:54 undefined 43 6.1 10 -12.2 26 26 undefined N/A 30.37 1028 N/A 0 0
4:54 pm 16:54 undefined 42 5.6 8 -13.3 24 24 undefined N/A 30.37 1029 N/A 0 0
5:54 pm 17:54 undefined 41 5 9 -12.8 27 27 undefined N/A 30.4 1030 N/A 0 0
6:54 pm 18:54 undefined 40 4.4 11 -11.7 30 30 undefined N/A 30.4 1029 N/A 0 0
7:54 pm 19:54 undefined 39 3.9 13 -10.6 34 34 undefined N/A 30.38 1029 N/A 0 0
8:54 pm 20:54 undefined 39 3.9 11 -11.7 31 31 undefined N/A 30.37 1029 N/A 0 0
9:54 pm 21:54 undefined 39 3.9 12 -11.1 33 33 undefined N/A 30.37 1028 N/A 0 0
10:54 pm 22:54 undefined 38 3.3 9 -12.8 30 30 undefined N/A 30.36 1028 N/A 0 0
11:54 pm 23:54 undefined 38 3.3 10 -12.2 31 31 undefined N/A 30.36 1028 N/A 0 0

Powered by AerisWeather